This demonstration page uses our WeatherBlox Daily Observations layout. Learn more.

Left ArrowRight Arrow

41.86663, -103.66717

Hourly Observations for May 18, 2021

Temp ( °F °C ) Dew Point ( °F °C ) Humidity (%) Winds ( mph kmh ) Pressure ( in mb ) Visibility ( mi km ) Precip ( " mm )
12:41 am 00:41 Mostly Cloudy 56 13.3 51 10.6 84 84 ESE 15 24 29.88 1012 10 16 0.00 0.00
12:53 am 00:53 Cloudy 56 13.3 51 10.6 84 84 SE 14 22 29.87 1012 10 16 0.00 0.00
1:53 am 01:53 Cloudy 55 12.8 51 10.6 87 87 SE 13 20 29.88 1012 10 16 0.00 0.00
2:53 am 02:53 Cloudy 54 12.2 50 10 87 87 SE 10 17 29.87 1012 10 16 0.00 0.00
2:59 am 02:59 Cloudy 53 11.7 50 10 89 89 SE 9 15 29.89 1012 10 16 0.00 0.00
3:53 am 03:53 Clear 52 11.1 49 9.4 89 89 SE 7 11 29.87 1012 10 16 0.00 0.00
4:53 am 04:53 Clear 51 10.6 48 8.9 89 89 ESE 7 11 29.86 1011 10 16 0.00 0.00
5:53 am 05:53 Sunny 51 10.6 48 8.9 89 89 SE 8 13 29.88 1012 9 14 0.00 0.00
6:53 am 06:53 Sunny 53 11.7 50 10 89 89 SE 5 7 29.88 1012 9 14 0.00 0.00
10:29 am 10:29 Mostly Cloudy 65 18.3 53 11.7 66 66 ESE 12 19 29.77 1008 10 16 0.00 0.00
10:51 am 10:51 Mostly Cloudy 68 20 52 11 56 56 SE 14 22 29.74 1007 10 16 0.00 0.00
10:53 am 10:53 Mostly Cloudy 68 20 52 11.1 57 57 SE 10 17 29.83 1010 10 16 0.00 0.00
11:20 am 11:20 Mostly Cloudy 66 18.9 51 10.6 59 59 SSE 18 30 29.76 1008 10 16 0.00 0.00
11:35 am 11:35 Mostly Cloudy 67 19.4 52 11.1 59 59 SSE 15 24 29.74 1007 10 16 0.00 0.00
11:53 am 11:53 Mostly Cloudy 67 19.4 51 10.6 57 57 SSE 16 26 29.83 1010 10 16 0.00 0.00
12:53 pm 12:53 Mostly Cloudy 70 21.1 52 11.1 53 53 SSE 17 28 29.81 1010 10 16 0.00 0.00
1:53 pm 13:53 Partly Cloudy 70 21.1 51 10.6 51 51 S 14 22 29.79 1009 10 16 0.00 0.00
2:53 pm 14:53 Mostly Cloudy 72 22.2 52 11.1 50 50 S 15 24 29.77 1008 10 16 0.00 0.00
3:53 pm 15:53 Mostly Sunny 74 23.3 50 10 43 43 SSE 13 20 29.75 1007 10 16 0.00 0.00
4:53 pm 16:53 Mostly Sunny 74 23.3 48 8.9 40 40 S 10 17 29.73 1007 10 16 0.00 0.00
5:53 pm 17:53 Partly Cloudy 73 22.8 49 9.4 43 43 SSE 8 13 29.73 1007 10 16 0.00 0.00
6:53 pm 18:53 Mostly Sunny 69 20.6 48 8.9 47 47 SSE 16 26 29.74 1007 10 16 0.00 0.00
7:53 pm 19:53 Sunny 66 18.9 50 10 56 56 SSE 10 17 29.75 1008 10 16 0.00 0.00
8:53 pm 20:53 Clear 60 15.6 49 9.4 67 67 SE 6 9 29.78 1008 10 16 0.00 0.00
9:53 pm 21:53 Clear 58 14.4 49 9.4 72 72 ESE 7 11 29.79 1009 10 16 0.00 0.00
10:53 pm 22:53 Clear 55 12.8 49 9.4 80 80 E 5 7 29.78 1008 10 16 0.00 0.00
11:53 pm 23:53 Clear 53 11.7 48 8.9 83 83 E 6 9 29.78 1008 10 16 0.00 0.00

Powered by AerisWeather